User: anonymous   Login
Location: Unspecified
(47.6578°N, 23.5640°E)
Time: 05:00:52
(UTC+03:00)
Language:

ISS - Orbit

View from above orbital plane
View from above orbital plane
View from above satellite
View from above satellite

Ground track
Ground track

The orbit data is extracted from the following two-line orbital elements,

1 25544U 98067A   22182.71606304  .00005679  00000-0  10820-3 0  9993
2 25544  51.6437 264.6317 0004241 318.9770 176.4980 15.49785714347430
Epoch (UTC): 01 July 2022 17:11:07
Eccentricity: 0.0004241
inclination: 51.6437°
perigee height: 414 km
apogee height: 420 km
right ascension of ascending node: 264.6317°
argument of perigee: 318.9770°
revolutions per day: 15.49785714
mean anomaly at epoch: 176.4980°
orbit number at epoch: 34743

The dashed part of the orbit path shows where the satellite is in the earth's shadow,  

DLR